Date,TemperatureHighF,TemperatureAvgF,TemperatureLowF,DewpointHighF,DewpointAvgF,DewpointLowF,HumidityHigh,HumidityAvg,HumidityLow,PressureMaxIn,PressureMinIn,WindSpeedMaxMPH,WindSpeedAvgMPH,GustSpeedMaxMPH,PrecipitationSumIn
2014-1-1,-1,-7,-13,-14,-20,-24,57,54,50,0.00,40.00,5,4,11,0.00
2014-1-2,4,-13,-25,-20,-26,-34,65,53,30,0.00,40.00,5,3,8,0.00
2014-1-3,24,6,-25,20,-1,-34,86,70,55,0.00,40.00,15,10,23,0.00
2014-1-4,26,12,-5,24,1,-100,93,63,46,0.00,40.00,21,11,29,0.00
2014-1-5,-5,-14,-23,-15,-26,-37,67,55,44,0.00,40.00,13,7,23,0.00
2014-1-6,-13,-20,-26,-29,-34,-39,55,47,39,0.00,40.00,11,8,19,0.00
2014-1-7,2,-12,-23,-12,-23,-33,68,58,47,0.00,40.00,9,4,13,0.00
2014-1-8,3,-12,-25,-13,-23,-35,67,59,45,0.00,40.00,6,3,8,0.00
2014-1-9,15,3,-25,10,-5,-35,83,70,54,0.00,40.00,10,6,17,0.00
2014-1-10,28,23,14,27,21,10,96,91,83,0.00,40.00,14,7,21,0.00
2014-1-11,30,26,18,27,21,-100,96,85,76,0.00,40.00,12,6,20,0.00
2014-1-12,39,30,18,29,24,16,91,79,63,0.00,40.00,7,5,12,0.17
2014-1-13,32,26,18,27,17,11,89,70,55,0.00,40.00,12,7,23,0.01
2014-1-14,21,15,5,17,7,-3,87,70,57,0.00,40.00,15,10,23,0.00
2014-1-15,19,7,-7,15,0,-13,87,72,60,0.00,40.00,15,9,23,0.00
2014-1-16,33,16,7,30,7,-5,88,68,53,0.00,40.00,22,14,39,0.00
2014-1-17,14,5,-3,0,-6,-11,69,60,44,0.00,40.00,16,8,24,0.00
2014-1-18,26,14,5,11,4,-100,80,68,50,0.00,40.00,11,7,19,0.06
2014-1-19,36,26,16,25,20,11,90,78,62,0.00,40.00,9,6,18,0.07
2014-1-20,27,9,-8,20,-4,-24,84,54,35,0.00,40.00,11,8,21,0.02
2014-1-21,-1,-9,-22,-8,-20,-31,73,57,43,0.00,40.00,7,4,16,0.00
2014-1-22,3,-1,-9,-4,-13,-20,75,58,44,0.00,40.00,19,11,31,0.00
2014-1-23,-4,-12,-20,-13,-23,-30,68,56,43,0.00,40.00,15,8,23,0.00
2014-1-24,30,20,-5,25,12,-13,87,71,43,0.00,40.00,20,10,32,0.00
2014-1-25,19,4,-1,0,-14,-100,74,45,30,0.00,40.00,20,12,33,0.00
2014-1-26,13,2,-9,2,-7,-21,76,66,47,0.00,40.00,23,12,40,0.00
2014-1-27,-5,-13,-19,-21,-28,-32,56,46,36,0.00,40.00,19,11,30,0.00
2014-1-28,-2,-13,-26,-17,-25,-36,63,54,41,0.00,40.00,11,7,19,0.00
2014-1-29,24,7,-13,12,-6,-21,75,57,37,0.00,40.00,13,7,24,0.00
2014-1-30,19,11,-6,12,-1,-19,81,60,45,0.00,40.00,16,8,21,0.00
2014-1-31,7,-6,-19,-9,-17,-27,68,57,43,0.00,40.00,11,5,17,0.00
2014-2-1,19,7,-12,6,-4,-100,73,63,55,0.00,40.00,13,6,22,0.01
2014-2-2,14,2,-15,-3,-10,-22,72,59,44,0.00,40.00,11,5,15,0.01
2014-2-3,18,6,-16,-1,-8,-25,69,55,41,0.00,40.00,9,4,16,0.00
2014-2-4,9,0,-12,-8,-12,-20,77,58,45,0.00,40.00,11,6,16,0.00
2014-2-5,4,-1,-5,-7,-12,-17,67,57,52,0.00,40.00,11,8,17,0.00
2014-2-6,3,-5,-14,-11,-15,-21,71,61,47,0.00,40.00,13,7,22,0.00
2014-2-7,10,0,-8,-10,-13,-16,72,56,38,0.00,40.00,12,8,19,0.00
2014-2-8,16,1,-23,1,-10,-33,72,61,45,0.00,40.00,6,3,10,0.00
2014-2-9,7,0,-7,-7,-14,-19,69,53,40,0.00,40.00,14,8,19,0.00
2014-2-10,9,-4,-19,-11,-18,-28,66,53,38,0.00,40.00,9,4,14,0.00
2014-2-11,14,4,-26,5,-8,-36,79,55,39,0.00,40.00,15,10,22,0.00
2014-2-12,28,16,10,11,6,2,83,68,34,0.00,40.00,9,3,13,0.01
2014-2-13,25,19,14,22,12,5,87,75,60,0.00,40.00,21,11,30,0.01
2014-2-14,15,6,-8,-1,-6,-15,71,58,46,0.00,40.00,11,7,20,0.00
2014-2-15,19,9,-11,10,0,-100,74,67,63,0.00,40.00,7,4,13,0.00
2014-2-16,18,12,-7,8,2,-13,81,64,51,0.00,40.00,9,5,14,0.00
2014-2-17,31,22,10,24,15,6,88,76,61,0.00,40.00,16,6,25,0.14
2014-2-18,41,27,12,26,20,9,90,73,54,0.00,40.00,9,3,14,0.03
2014-2-19,44,33,17,27,22,14,86,65,46,0.00,40.00,9,6,14,0.00
2014-2-20,36,31,17,32,26,14,96,83,68,0.00,40.00,23,7,36,0.12
2014-2-21,17,11,7,14,4,-1,87,74,65,0.00,40.00,23,15,35,0.04
2014-2-22,16,8,1,0,-5,-100,70,59,47,0.00,40.00,14,10,23,0.00
2014-2-23,19,9,-1,0,-4,-9,70,56,42,0.00,40.00,16,10,25,0.00
2014-2-24,16,6,-5,-1,-7,-13,67,55,36,0.00,40.00,12,8,18,0.00
2014-2-25,7,-2,-13,-7,-16,-23,70,52,37,0.00,40.00,14,8,23,0.00
2014-2-26,17,0,-14,0,-14,-24,65,51,39,0.00,40.00,22,13,32,0.00
2014-2-27,2,-12,-26,-24,-30,-36,57,40,21,0.00,40.00,18,6,29,0.00
2014-2-28,12,-2,-26,-3,-15,-36,69,52,39,0.00,40.00,11,5,18,0.00
2014-3-1,2,-5,-12,-10,-23,-100,59,44,31,0.00,40.00,13,10,20,0.00
2014-3-2,7,-6,-18,-16,-24,-31,52,39,28,0.00,40.00,11,6,15,0.00
2014-3-3,9,-5,-25,-1,-17,-35,76,55,36,0.00,40.00,6,3,10,0.00
2014-3-4,18,10,5,2,0,-4,77,64,44,0.00,40.00,6,3,10,0.01
2014-3-5,25,14,2,6,-1,-7,65,52,42,0.00,40.00,9,5,13,0.01
2014-3-6,31,20,10,21,11,-2,83,67,55,0.00,40.00,18,11,28,0.00
2014-3-7,31,26,19,26,20,13,90,78,64,0.00,40.00,16,8,24,0.00
2014-3-8,32,20,3,13,6,-100,79,58,36,0.00,40.00,8,5,15,0.01
2014-3-9,44,31,15,31,21,10,80,68,52,0.00,40.00,12,7,21,0.01
2014-3-10,56,43,28,34,29,26,95,62,35,0.00,40.00,9,6,14,0.01
2014-3-11,43,38,28,30,22,15,73,54,35,0.00,40.00,17,9,24,0.00
2014-3-12,29,22,14,15,6,-2,61,51,28,0.00,40.00,14,7,22,0.00
2014-3-13,47,33,17,36,22,3,85,66,51,0.00,40.00,11,7,17,0.00
2014-3-14,42,36,24,36,25,13,86,65,48,0.00,40.00,19,11,33,0.00
2014-3-15,33,22,15,13,5,-100,74,52,32,0.00,40.00,11,6,20,0.00
2014-3-16,24,16,2,7,-2,-8,67,46,33,0.00,40.00,9,5,16,0.00
2014-3-17,28,25,20,21,15,-100,78,70,56,0.00,40.00,12,8,18,0.00
2014-3-18,31,27,25,28,24,21,92,89,80,0.00,40.00,9,7,18,0.09
2014-3-19,36,30,25,23,21,18,90,72,53,0.00,40.00,14,8,22,0.16
2014-3-20,45,28,13,28,18,-100,87,71,47,0.00,40.00,7,3,12,0.05
2014-3-21,38,30,17,33,23,-100,93,78,69,0.00,40.00,24,10,35,0.12
2014-3-22,18,11,3,9,-4,-100,69,54,43,0.00,40.00,21,13,32,0.01
2014-3-23,24,11,-8,4,-2,-15,75,56,41,0.00,40.00,10,4,17,0.00
2014-3-24,31,26,21,15,9,2,77,49,31,0.00,40.00,14,10,23,0.00
2014-3-25,22,13,3,1,-3,-8,75,48,37,0.00,40.00,15,9,24,0.00
2014-3-26,36,19,-5,20,6,-11,76,59,42,0.00,40.00,14,7,23,0.00
2014-3-27,38,34,30,37,30,20,98,88,58,0.00,40.00,11,6,19,0.27
2014-3-28,36,28,18,25,12,6,80,53,32,0.00,40.00,10,7,16,0.02
2014-3-29,43,26,12,20,10,-100,77,55,28,0.00,40.00,9,4,17,0.02
2014-3-30,55,43,33,33,29,20,72,60,41,0.00,40.00,11,7,17,0.00
2014-3-31,42,40,36,37,34,31,91,78,67,0.00,40.00,12,8,23,0.03
2014-4-1,36,30,20,34,20,12,95,67,47,0.00,40.00,22,10,34,0.03
2014-4-2,40,27,11,19,13,7,85,58,36,0.00,40.00,7,3,11,0.01
2014-4-3,35,32,25,29,22,18,94,69,50,0.00,40.00,13,8,22,0.02
2014-4-4,42,32,24,27,23,18,93,73,44,0.00,40.00,14,10,26,0.22
2014-4-5,46,33,13,34,22,-100,88,67,47,0.00,40.00,14,6,20,0.05
2014-4-6,54,43,31,35,32,28,89,65,46,0.00,40.00,8,4,12,0.00
2014-4-7,55,43,30,38,31,23,93,66,40,0.00,40.00,13,5,20,0.00
2014-4-8,48,39,29,30,25,21,77,58,35,0.00,40.00,14,10,21,0.00
2014-4-9,64,47,26,44,32,22,87,59,38,0.00,40.00,16,8,25,0.00
2014-4-10,57,51,36,44,26,18,64,40,22,0.00,40.00,18,12,30,0.00
2014-4-11,60,48,31,41,32,25,91,58,31,0.00,40.00,12,5,20,0.11
2014-4-12,48,43,36,41,34,-100,94,78,46,0.00,40.00,16,9,26,0.25
2014-4-13,40,36,31,35,29,18,93,75,56,0.00,40.00,14,9,26,0.06
2014-4-14,34,29,25,19,11,4,63,48,28,0.00,40.00,20,14,32,0.00
2014-4-15,35,26,16,14,5,1,63,42,23,0.00,40.00,10,6,23,0.00
2014-4-16,30,28,26,27,22,9,95,81,41,0.00,40.00,14,10,24,0.00